Tracking 23762 objects as of 20-Oct-2021
HD Live streaming from Space Station
objects crossing your sky now

SL-23 DEB

Track SL-23 DEB now!


NORAD ID: 43385
Int'l Code: 2009-009D
Perigee: 1,188.1 km
Apogee: 35,826.8 km
Inclination: 34.6 °
Period: 650.9 minutes
Semi major axis: 24878 km
RCS: Unknown
Launch date: February 26, 2009
Source: Commonwealth of Independent States (former USSR) (CIS)
Launch site: TYURATAM MISSILE AND SPACE COMPLEX (TTMTR)

Note: This is SATELLITE DEBRIS
aabbcc
Your satellite tracking list
Your tracking list is empty




NASA's NSSDC Master Catalog

Two Line Element Set (TLE):
1 43385U 09009D   21293.05841807 -.00000076  00000-0  00000+0 0  9994
2 43385  34.5590 293.6064 6961572 351.4340   8.1738  2.21242053 99485
Source of the keplerian elements: AFSPC